Weather History for Breckenridge, TX

Change the Weather History Date:

Wednesday, July 31, 2013

  Actual Average (KABI) Record (KABI)
Temperature  
Mean Temperature 90 °F 84 °F  
Max Temperature 101 °F 95 °F 105 °F (1986)
Min Temperature 78 °F 73 °F 54 °F (1911)
Degree Days  
Heating Degree Days 0 0  
Month to date heating degree days 0  
Since 1 June heating degree days 1  
Since 1 July heating degree days 0  
Cooling Degree Days 24 19  
Month to date cooling degree days 561  
Year to date cooling degree days 1393  
Since 1 June cooling degree days 996  
Growing Degree Days 40 (Base 50)    
Moisture  
Dew Point 65 °F    
Average Humidity 45    
Maximum Humidity 68    
Minimum Humidity 28    
Precipitation  
Precipitation 0.00 in 0.06 in 3.75 in (1911)
Month to date precipitation 1.87  
Year to date precipitation 14.37  
Sea Level Pressure  
Sea Level Pressure 30.02 in    
Wind  
Wind Speed 8 mph (SSW)    
Max Wind Speed 16 mph    
Max Gust Speed 21 mph    
Visibility 10 miles    
Events      
T = Trace of Precipitation, MM = Missing Value Source: NWS Daily Summary

Daily Weather History Graph

Daily Weather History Graph

Search for Another Location

Airport:

Trip Planner

Search our weather history database for the weather conditions in past years. The results will help you decide how hot, cold, wet, or windy it might be!

Date:

Astronomy

Jul. 31, 2013 Rise Set
Actual Time 6:49 AM CDT 8:34 PM CDT
Civil Twilight 6:22 AM CDT 9:01 PM CDT
Nautical Twilight 5:49 AM CDT 9:33 PM CDT
Astronomical Twilight 5:15 AM CDT 10:07 PM CDT
Moon 1:45 AM CDT (7/31) 3:51 PM CDT (7/31)
Length of Visible Light 14h 39m
Length of Day
13h 45m
Waning Crescent, 31% of the Moon is Illuminated
Jul 31
Waning Crescent
Aug 6
New
Aug 14
First Quarter
Aug 20
Full
Aug 28
Last Quarter

Hourly Weather History & Observations

Time (CDT) Temp. Heat Index Dew Point Humidity Pressure Visibility Wind Dir Wind Speed Gust Speed Precip Events Conditions
12:15 AM 85.3 °F 86.8 °F 64.8 °F 50% 30.00 in 10.0 mi SSE 9.2 mph - N/A   Clear
12:35 AM 85.3 °F 86.6 °F 64.4 °F 49% 30.00 in 10.0 mi SSE 8.1 mph - N/A   Clear
12:55 AM 85.3 °F 86.6 °F 64.4 °F 49% 30.00 in 10.0 mi SSE 9.2 mph - N/A   Clear
1:15 AM 85.3 °F 86.6 °F 64.4 °F 49% 30.00 in 10.0 mi SSE 9.2 mph - N/A   Clear
1:35 AM 84.7 °F 85.9 °F 63.9 °F 49% 30.00 in 10.0 mi SSE 8.1 mph - N/A   Clear
1:55 AM 84.4 °F 85.6 °F 63.9 °F 50% 30.01 in 10.0 mi SSE 9.2 mph - N/A   Clear
2:15 AM 84.2 °F 85.4 °F 63.7 °F 50% 30.01 in 10.0 mi South 9.2 mph - N/A   Clear
2:35 AM 83.3 °F 84.4 °F 63.5 °F 51% 30.01 in 10.0 mi South 8.1 mph - N/A   Clear
2:55 AM 83.3 °F 84.3 °F 62.8 °F 50% 30.00 in 10.0 mi South 10.4 mph 16.1 mph N/A   Clear
3:15 AM 84.2 °F 84.8 °F 62.2 °F 47% 30.00 in 10.0 mi South 11.5 mph 18.4 mph N/A   Clear
3:35 AM 84.2 °F 84.8 °F 62.1 °F 47% 30.00 in 10.0 mi SSW 11.5 mph 17.3 mph N/A   Clear
3:55 AM 84.2 °F 84.8 °F 62.1 °F 47% 30.00 in 10.0 mi SSW 11.5 mph - N/A   Clear
4:15 AM 83.3 °F 84.3 °F 62.6 °F 50% 30.00 in 10.0 mi South 9.2 mph - N/A   Clear
4:35 AM 82.2 °F 83.3 °F 62.8 °F 52% 30.00 in 10.0 mi South 9.2 mph - N/A   Clear
4:55 AM 81.5 °F 82.8 °F 63.1 °F 54% 30.01 in 10.0 mi South 6.9 mph - N/A   Clear
5:15 AM 80.8 °F 82.2 °F 63.5 °F 56% 30.01 in 10.0 mi South 5.8 mph - N/A   Clear
5:35 AM 80.6 °F 82.2 °F 63.9 °F 57% 30.02 in 10.0 mi SSE 4.6 mph - N/A   Clear
5:55 AM 79.0 °F - 64.4 °F 61% 30.03 in 10.0 mi South 5.8 mph - N/A   Clear
6:15 AM 79.2 °F - 64.6 °F 61% 30.04 in 10.0 mi South 4.6 mph - N/A   Clear
6:35 AM 79.3 °F - 64.8 °F 61% 30.05 in 10.0 mi South 5.8 mph - N/A   Mostly Cloudy
6:55 AM 79.3 °F - 64.9 °F 61% 30.06 in 10.0 mi South 5.8 mph - N/A   Mostly Cloudy
7:15 AM 78.8 °F - 65.5 °F 64% 30.06 in 10.0 mi South 5.8 mph - N/A   Scattered Clouds
7:35 AM 79.0 °F - 65.8 °F 64% 30.07 in 10.0 mi South 4.6 mph - N/A   Scattered Clouds
7:55 AM 78.3 °F - 67.1 °F 68% 30.08 in 10.0 mi SSW 3.5 mph - N/A   Scattered Clouds
8:15 AM 80.6 °F 83.2 °F 67.8 °F 65% 30.08 in 10.0 mi SSW 3.5 mph - N/A   Scattered Clouds
8:35 AM 81.7 °F 84.5 °F 68.0 °F 63% 30.08 in 10.0 mi SSW 5.8 mph - N/A   Scattered Clouds
8:55 AM 83.1 °F 86.3 °F 68.5 °F 61% 30.09 in 10.0 mi SSW 5.8 mph - N/A   Clear
9:15 AM 85.3 °F 88.5 °F 68.2 °F 56% 30.09 in 10.0 mi SW 9.2 mph - N/A   Clear
9:35 AM 86.9 °F 90.6 °F 68.4 °F 54% 30.09 in 10.0 mi WSW 10.4 mph 18.4 mph N/A   Clear
9:55 AM 87.8 °F 91.1 °F 67.8 °F 51% 30.09 in 10.0 mi SW 13.8 mph 19.6 mph N/A   Clear
10:15 AM 89.4 °F 92.7 °F 67.6 °F 48% 30.09 in 10.0 mi SW 16.1 mph - N/A   Clear
10:35 AM 90.3 °F 93.9 °F 67.6 °F 47% 30.09 in 10.0 mi WSW 12.7 mph 17.3 mph N/A   Scattered Clouds
10:55 AM 89.8 °F 92.9 °F 67.1 °F 47% 30.09 in 10.0 mi WSW 11.5 mph - N/A   Scattered Clouds
11:15 AM 91.6 °F 95.7 °F 68.2 °F 46% 30.08 in 10.0 mi WSW 9.2 mph - N/A   Scattered Clouds
11:35 AM 92.3 °F 96.1 °F 67.3 °F 44% 30.08 in 10.0 mi SW 8.1 mph - N/A   Clear
11:55 AM 94.1 °F 96.4 °F 65.1 °F 38% 30.08 in 10.0 mi West 10.4 mph - N/A   Clear
12:15 PM 95.9 °F 99.0 °F 65.8 °F 37% 30.07 in 10.0 mi West 10.4 mph - N/A   Clear
12:35 PM 97.0 °F 99.3 °F 64.4 °F 34% 30.07 in 10.0 mi West 11.5 mph 17.3 mph N/A   Clear
12:55 PM 97.3 °F 100.0 °F 64.4 °F 34% 30.06 in 10.0 mi WNW 9.2 mph - N/A   Clear
1:15 PM 98.1 °F 100.7 °F 64.4 °F 33% 30.05 in 10.0 mi WNW 5.8 mph - N/A   Clear
1:35 PM 99.5 °F 102.0 °F 63.7 °F 31% 30.05 in 10.0 mi NW 8.1 mph - N/A   Scattered Clouds
1:55 PM 98.8 °F 101.4 °F 64.6 °F 32% 30.04 in 10.0 mi NNW 3.5 mph - N/A   Scattered Clouds
2:15 PM 99.1 °F 102.6 °F 65.5 °F 33% 30.03 in 10.0 mi North 11.5 mph 20.7 mph N/A   Scattered Clouds
2:35 PM 99.5 °F 102.0 °F 63.9 °F 31% 30.03 in 10.0 mi WNW 4.6 mph - N/A   Clear
2:55 PM 100.0 °F 103.0 °F 64.4 °F 31% 30.03 in 10.0 mi North 6.9 mph - N/A   Clear
3:15 PM 99.7 °F 102.3 °F 64.2 °F 31% 30.02 in 10.0 mi North 6.9 mph - N/A   Clear
3:35 PM 99.7 °F 102.3 °F 64.4 °F 31% 30.01 in 10.0 mi North 4.6 mph - N/A   Clear
3:55 PM 101.1 °F 104.3 °F 64.0 °F 30% 30.00 in 10.0 mi North 6.9 mph - N/A   Clear
4:15 PM 101.5 °F 104.3 °F 63.9 °F 29% 29.99 in 10.0 mi NE 5.8 mph - N/A   Clear
4:35 PM 100.2 °F 102.7 °F 63.5 °F 30% 29.98 in 10.0 mi Calm Calm - N/A   Clear
4:55 PM 101.1 °F 104.3 °F 64.4 °F 30% 29.98 in 10.0 mi North 3.5 mph - N/A   Clear
5:15 PM 100.9 °F 104.6 °F 64.9 °F 31% 29.97 in 10.0 mi NNE 10.4 mph - N/A   Clear
5:35 PM 100.2 °F 103.3 °F 64.2 °F 31% 29.96 in 10.0 mi NNE 4.6 mph - N/A   Clear
5:55 PM 100.6 °F 103.3 °F 63.5 °F 30% 29.96 in 10.0 mi Calm Calm - N/A   Clear
6:15 PM 100.2 °F 102.1 °F 62.6 °F 29% 29.96 in 10.0 mi ENE 3.5 mph - N/A   Clear
6:35 PM 100.9 °F 102.7 °F 62.1 °F 28% 29.96 in 10.0 mi Calm Calm - N/A   Clear
6:55 PM 100.0 °F 102.4 °F 63.7 °F 30% 29.96 in 10.0 mi NE 4.6 mph - N/A   Scattered Clouds
7:15 PM 100.2 °F 102.1 °F 62.8 °F 29% 29.95 in 10.0 mi NNE 5.8 mph - N/A   Scattered Clouds
7:35 PM 99.5 °F 101.5 °F 63.1 °F 30% 29.96 in 10.0 mi NNE 3.5 mph - N/A   Clear
7:55 PM 98.6 °F 100.5 °F 63.0 °F 31% 29.96 in 10.0 mi NNE 5.8 mph - N/A   Clear
8:15 PM 97.3 °F 100.0 °F 64.2 °F 34% 29.97 in 10.0 mi NE 6.9 mph - N/A   Clear
8:35 PM 95.5 °F 98.4 °F 65.7 °F 37% 29.97 in 10.0 mi Calm Calm - N/A   Scattered Clouds
8:55 PM 94.5 °F 97.5 °F 65.7 °F 39% 29.98 in 10.0 mi Calm Calm - N/A   Clear
9:15 PM 92.3 °F 96.1 °F 67.6 °F 44% 29.99 in 10.0 mi ESE 5.8 mph - N/A   Clear
9:35 PM 91.0 °F 94.3 °F 67.3 °F 45% 29.99 in 10.0 mi SE 5.8 mph - N/A   Scattered Clouds
9:55 PM 90.3 °F 93.4 °F 67.1 °F 46% 29.99 in 10.0 mi ESE 4.6 mph - N/A   Scattered Clouds
10:15 PM 89.8 °F 92.9 °F 67.1 °F 47% 30.00 in 10.0 mi Calm Calm - N/A   Scattered Clouds
10:35 PM 89.4 °F 92.7 °F 67.1 °F 48% 30.01 in 10.0 mi NNE 5.8 mph - N/A   Clear
10:55 PM 88.2 °F 91.3 °F 67.5 °F 50% 30.01 in 10.0 mi Calm Calm - N/A   Clear
11:15 PM 87.8 °F 90.4 °F 66.6 °F 49% 30.01 in 10.0 mi ENE 3.5 mph - N/A   Clear
11:35 PM 87.8 °F 91.4 °F 68.4 °F 52% 30.02 in 10.0 mi NE 6.9 mph - N/A   Clear
11:55 PM 87.8 °F 93.4 °F 70.7 °F 57% 30.03 in 10.0 mi ENE 6.9 mph - N/A   Clear